| time (UTC) | temp C | wind direction | speed KPH | gust KPH | rain 1hr cm | rain 24hr cm | rain mn cm | humidity % | barometer mb |
| 20260504025829 | 21 | 174 | 12.9 | 33.8 | 0.00 | 0.00 | 0.00 | 16 | 1010.9 |
| 20260504024822 | 21 | 172 | 8.0 | 22.5 | 0.00 | 0.00 | 0.00 | 14 | 1010.9 |
| 20260504024316 | 21 | 202 | 6.4 | 22.5 | 0.00 | 0.00 | 0.00 | 14 | 1010.9 |
| 20260504023810 | 21 | 156 | 4.8 | 16.1 | 0.00 | 0.00 | 0.00 | 14 | 1010.8 |
| 20260504023304 | 22 | 251 | 6.4 | 17.7 | 0.00 | 0.00 | 0.00 | 14 | 1010.8 |
| 20260504022252 | 22 | 221 | 11.3 | 27.4 | 0.00 | 0.00 | 0.00 | 13 | 1010.7 |
| 20260504021747 | 22 | 300 | 9.7 | 22.5 | 0.00 | 0.00 | 0.00 | 12 | 1010.7 |
| 20260504021240 | 22 | 226 | 8.0 | 22.5 | 0.00 | 0.00 | 0.00 | 12 | 1010.5 |
| 20260504020735 | 23 | 243 | 8.0 | 24.1 | 0.00 | 0.00 | 0.00 | 12 | 1010.5 |
| 20260504020229 | 23 | 161 | 11.3 | 25.7 | 0.00 | 0.00 | 0.00 | 11 | 1010.5 |
| 20260504015722 | 23 | 174 | 11.3 | 25.7 | 0.00 | 0.00 | 0.00 | 11 | 1010.5 |
| 20260504014205 | 25 | 170 | 9.7 | 30.6 | 0.00 | 0.00 | 0.00 | 9 | 1010.5 |
| 20260504013152 | 25 | 154 | 8.0 | 25.7 | 0.00 | 0.00 | 0.00 | 8 | 1010.5 |
| 20260504012647 | 25 | 228 | 8.0 | 17.7 | 0.00 | 0.00 | 0.00 | 8 | 1010.5 |
| 20260504012141 | 25 | 176 | 8.0 | 19.3 | 0.00 | 0.00 | 0.00 | 8 | 1010.5 |
| 20260504011634 | 25 | 210 | 11.3 | 20.9 | 0.00 | 0.00 | 0.00 | 7 | 1010.7 |
| 20260504011129 | 25 | 147 | 11.3 | 22.5 | 0.00 | 0.00 | 0.00 | 7 | 1010.5 |
| 20260504010622 | 26 | 118 | 9.7 | 24.1 | 0.00 | 0.00 | 0.00 | 7 | 1010.5 |
| 20260504010116 | 26 | 130 | 6.4 | 24.1 | 0.00 | 0.00 | 0.00 | 6 | 1010.5 |
| 20260504005611 | 26 | 56 | 8.0 | 29.0 | 0.00 | 0.00 | 0.00 | 6 | 1010.5 |
| 20260504005104 | 26 | 248 | 9.7 | 29.0 | 0.00 | 0.00 | 0.00 | 5 | 1010.3 |
| 20260504004558 | 26 | 212 | 9.7 | 33.8 | 0.00 | 0.00 | 0.00 | 5 | 1010.5 |
| 20260504004053 | 26 | 179 | 12.9 | 33.8 | 0.00 | 0.00 | 0.00 | 5 | 1010.5 |
| 20260504003546 | 26 | 193 | 11.3 | 29.0 | 0.00 | 0.00 | 0.00 | 5 | 1010.5 |
| 20260504003044 | 26 | 191 | 9.7 | 30.6 | 0.00 | 0.00 | 0.00 | 5 | 1010.5 |
| 20260504002535 | 26 | 134 | 9.7 | 30.6 | 0.00 | 0.00 | 0.00 | 5 | 1010.5 |
| 20260504002028 | 25 | 188 | 9.7 | 24.1 | 0.00 | 0.00 | 0.00 | 5 | 1010.5 |
| 20260504001523 | 25 | 239 | 9.7 | 20.9 | 0.00 | 0.00 | 0.00 | 5 | 1010.8 |
| 20260504001016 | 25 | 208 | 8.0 | 29.0 | 0.00 | 0.00 | 0.00 | 6 | 1010.5 |
| 20260504000510 | 25 | 218 | 8.0 | 24.1 | 0.00 | 0.00 | 0.00 | 5 | 1010.5 |
| 20260503235459 | 25 | 182 | 8.0 | 29.0 | 0.00 | 0.00 | 0.00 | 5 | 1010.7 |
| 20260503234953 | 25 | 216 | 6.4 | 29.0 | 0.00 | 0.00 | 0.00 | 5 | 1010.5 |
| 20260503234447 | 24 | 201 | 9.7 | 29.0 | 0.00 | 0.00 | 0.00 | 5 | 1010.8 |
| 20260503233943 | 25 | 193 | 9.7 | 24.1 | 0.00 | 0.00 | 0.00 | 4 | 1010.5 |
| 20260503233441 | 25 | 218 | 11.3 | 24.1 | 0.00 | 0.00 | 0.00 | 4 | 1010.8 |
| 20260503231941 | 26 | 158 | 14.5 | 32.2 | 0.00 | 0.00 | 0.00 | 4 | 1010.7 |
| 20260503231441 | 26 | 193 | 14.5 | 38.6 | 0.00 | 0.00 | 0.00 | 4 | 1010.7 |
| 20260503230944 | 26 | 244 | 14.5 | 38.6 | 0.00 | 0.00 | 0.00 | 4 | 1010.8 |
| 20260503230442 | 26 | 53 | 16.1 | 30.6 | 0.00 | 0.00 | 0.00 | 4 | 1010.9 |
| 20260503225941 | 26 | 129 | 12.9 | 30.6 | 0.00 | 0.00 | 0.00 | 4 | 1011.0 |
| 20260503225443 | 26 | 183 | 11.3 | 33.8 | 0.00 | 0.00 | 0.00 | 3 | 1010.9 |
| 20260503224939 | 26 | 168 | 12.9 | 33.8 | 0.00 | 0.00 | 0.00 | 4 | 1010.8 |
| 20260503224440 | 26 | 137 | 12.9 | 30.6 | 0.00 | 0.00 | 0.00 | 4 | 1010.9 |
| 20260503223938 | 26 | 229 | 12.9 | 30.6 | 0.00 | 0.00 | 0.00 | 4 | 1011.0 |
| 20260503223437 | 26 | 143 | 11.3 | 29.0 | 0.00 | 0.00 | 0.00 | 4 | 1011.0 |
| 20260503222938 | 26 | 199 | 12.9 | 33.8 | 0.00 | 0.00 | 0.00 | 4 | 1011.0 |
| 20260503222439 | 26 | 293 | 12.9 | 33.8 | 0.00 | 0.00 | 0.00 | 5 | 1011.1 |
| 20260503221935 | 27 | 140 | 9.7 | 30.6 | 0.00 | 0.00 | 0.00 | 7 | 1010.9 |
| 20260503221434 | 26 | 266 | 11.3 | 30.6 | 0.00 | 0.00 | 0.00 | 8 | 1011.2 |
| 20260503220929 | 26 | 204 | 9.7 | 29.0 | 0.00 | 0.00 | 0.00 | 8 | 1011.1 |
| 20260503215917 | 26 | 208 | 12.9 | 32.2 | 0.00 | 0.00 | 0.00 | 10 | 1011.3 |
| 20260503215410 | 27 | 291 | 14.5 | 29.0 | 0.00 | 0.00 | 0.00 | 9 | 1011.5 |
| 20260503214905 | 26 | 214 | 16.1 | 32.2 | 0.00 | 0.00 | 0.00 | 10 | 1011.6 |
| 20260503214404 | 26 | 46 | 11.3 | 32.2 | 0.00 | 0.00 | 0.00 | 10 | 1011.6 |
| 20260503213854 | 27 | 89 | 8.0 | 24.1 | 0.00 | 0.00 | 0.00 | 10 | 1011.7 |
| 20260503213349 | 26 | 265 | 9.7 | 29.0 | 0.00 | 0.00 | 0.00 | 10 | 1011.7 |
| 20260503212840 | 26 | 230 | 9.7 | 29.0 | 0.00 | 0.00 | 0.00 | 10 | 1011.8 |
| 20260503212335 | 27 | 257 | 9.7 | 27.4 | 0.00 | 0.00 | 0.00 | 10 | 1011.8 |
| 20260503211837 | 27 | 217 | 11.3 | 35.4 | 0.00 | 0.00 | 0.00 | 10 | 1011.9 |
| 20260503211331 | 26 | 247 | 12.9 | 35.4 | 0.00 | 0.00 | 0.00 | 11 | 1011.9 |
| 20260503210831 | 27 | 146 | 11.3 | 25.7 | 0.00 | 0.00 | 0.00 | 9 | 1012.3 |
| 20260503210331 | 26 | 161 | 12.9 | 32.2 | 0.00 | 0.00 | 0.00 | 9 | 1012.4 |
| 20260503205830 | 26 | 169 | 12.9 | 32.2 | 0.00 | 0.00 | 0.00 | 10 | 1012.3 |
| 20260503205327 | 26 | 179 | 9.7 | 32.2 | 0.00 | 0.00 | 0.00 | 10 | 1012.3 |
| 20260503204829 | 26 | 224 | 9.7 | 40.2 | 0.00 | 0.00 | 0.00 | 10 | 1012.6 |
| 20260503204328 | 26 | 118 | 11.3 | 40.2 | 0.00 | 0.00 | 0.00 | 10 | 1012.8 |
| 20260503202827 | 26 | 96 | 12.9 | 33.8 | 0.00 | 0.00 | 0.00 | 10 | 1012.8 |
| 20260503202327 | 26 | 92 | 11.3 | 33.8 | 0.00 | 0.00 | 0.00 | 11 | 1013.0 |
| 20260503201827 | 26 | 190 | 12.9 | 32.2 | 0.00 | 0.00 | 0.00 | 10 | 1013.2 |
| 20260503201334 | 26 | 158 | 11.3 | 43.5 | 0.00 | 0.00 | 0.00 | 11 | 1013.0 |
| 20260503200831 | 26 | 251 | 9.7 | 43.5 | 0.00 | 0.00 | 0.00 | 10 | 1013.2 |
| 20260503200329 | 26 | 168 | 6.4 | 24.1 | 0.00 | 0.00 | 0.00 | 12 | 1013.2 |
| 20260503195830 | 26 | 146 | 8.0 | 30.6 | 0.00 | 0.00 | 0.00 | 13 | 1013.4 |
| 20260503195327 | 25 | 49 | 11.3 | 37.0 | 0.00 | 0.00 | 0.00 | 13 | 1013.4 |
| 20260503194827 | 25 | 265 | 11.3 | 37.0 | 0.00 | 0.00 | 0.00 | 13 | 1013.4 |
| 20260503194329 | 26 | 175 | 11.3 | 27.4 | 0.00 | 0.00 | 0.00 | 12 | 1013.6 |
| 20260503193327 | 26 | 258 | 12.9 | 38.6 | 0.00 | 0.00 | 0.00 | 11 | 1013.7 |
| 20260503192327 | 26 | 203 | 8.0 | 22.5 | 0.00 | 0.00 | 0.00 | 13 | 1013.7 |
| 20260503191829 | 26 | 91 | 8.0 | 33.8 | 0.00 | 0.00 | 0.00 | 12 | 1013.8 |
| 20260503191326 | 26 | 163 | 11.3 | 33.8 | 0.00 | 0.00 | 0.00 | 12 | 1014.1 |
| 20260503190826 | 26 | 180 | 9.7 | 25.7 | 0.00 | 0.00 | 0.00 | 11 | 1014.1 |
| 20260503190327 | 26 | 173 | 9.7 | 29.0 | 0.00 | 0.00 | 0.00 | 11 | 1014.2 |
| 20260503185326 | 26 | 240 | 6.4 | 25.7 | 0.00 | 0.00 | 0.00 | 12 | 1014.2 |
| 20260503184829 | 26 | 202 | 8.0 | 20.9 | 0.00 | 0.00 | 0.00 | 12 | 1014.2 |
| 20260503184327 | 26 | 261 | 8.0 | 30.6 | 0.00 | 0.00 | 0.00 | 11 | 1014.4 |
| 20260503183827 | 26 | 142 | 8.0 | 30.6 | 0.00 | 0.00 | 0.00 | 11 | 1014.4 |
| 20260503183329 | 25 | 113 | 9.7 | 37.0 | 0.00 | 0.00 | 0.00 | 13 | 1014.5 |
| 20260503182827 | 25 | 56 | 11.3 | 37.0 | 0.00 | 0.00 | 0.00 | 13 | 1014.5 |
| 20260503182328 | 25 | 72 | 8.0 | 30.6 | 0.00 | 0.00 | 0.00 | 13 | 1014.5 |
| 20260503181826 | 25 | 182 | 8.0 | 17.7 | 0.00 | 0.00 | 0.00 | 12 | 1014.4 |
| 20260503181327 | 26 | 107 | 8.0 | 17.7 | 0.00 | 0.00 | 0.00 | 11 | 1014.5 |
| 20260503180826 | 26 | 173 | 6.4 | 17.7 | 0.00 | 0.00 | 0.00 | 11 | 1014.5 |
| 20260503180324 | 26 | 1 | 6.4 | 20.9 | 0.00 | 0.00 | 0.00 | 11 | 1014.5 |
| 20260503175322 | 25 | 179 | 6.4 | 22.5 | 0.00 | 0.00 | 0.00 | 11 | 1014.8 |
| 20260503174314 | 26 | 195 | 4.8 | 24.1 | 0.00 | 0.00 | 0.00 | 11 | 1014.6 |
| 20260503173811 | 25 | 147 | 4.8 | 16.1 | 0.00 | 0.00 | 0.00 | 11 | 1014.9 |
| 20260503172309 | 25 | 193 | 8.0 | 30.6 | 0.00 | 0.00 | 0.00 | 11 | 1015.0 |
| 20260503171806 | 25 | 121 | 8.0 | 19.3 | 0.00 | 0.00 | 0.00 | 12 | 1015.1 |
| 20260503171306 | 25 | 67 | 8.0 | 20.9 | 0.00 | 0.00 | 0.00 | 11 | 1015.1 |
| 20260503170806 | 24 | 86 | 6.4 | 20.9 | 0.00 | 0.00 | 0.00 | 12 | 1015.1 |
| 20260503150622 | 21 | 89 | 8.0 | 19.3 | 0.00 | 0.00 | 0.00 | 12 | 1015.9 |
| 20260503150116 | 21 | 107 | 9.7 | 20.9 | 0.00 | 0.00 | 0.00 | 12 | 1015.8 |
| 20260503131409 | 17 | 148 | 4.8 | 8.0 | 0.00 | 0.00 | 0.00 | 16 | 1015.1 |
| 20260503130903 | 16 | 157 | 4.8 | 9.7 | 0.00 | 0.00 | 0.00 | 16 | 1015.0 |
| 20260503130358 | 16 | 165 | 4.8 | 9.7 | 0.00 | 0.00 | 0.00 | 16 | 1015.0 |
| 20260503110750 | 16 | 186 | 4.8 | 8.0 | 0.00 | 0.00 | 0.00 | 14 | 1015.4 |
| 20260503110245 | 16 | 173 | 3.2 | 6.4 | 0.00 | 0.00 | 0.00 | 14 | 1015.6 |
| 20260503090207 | 17 | 187 | 4.8 | 6.4 | 0.00 | 0.00 | 0.00 | 8 | 1015.6 |
| 20260503081206 | 14 | 180 | 3.2 | 4.8 | 0.00 | 0.00 | 0.00 | 10 | 1016.2 |
| 20260503080707 | 14 | 181 | 1.6 | 3.2 | 0.00 | 0.00 | 0.00 | 11 | 1016.4 |
| 20260503080205 | 14 | 171 | 1.6 | 3.2 | 0.00 | 0.00 | 0.00 | 11 | 1016.4 |
| 20260503072706 | 15 | 203 | 3.2 | 4.8 | 0.00 | 0.00 | 0.00 | 9 | 1016.6 |
| 20260503071703 | 15 | 175 | 3.2 | 4.8 | 0.00 | 0.00 | 0.00 | 9 | 1016.6 |
| 20260503071201 | 15 | 175 | 1.6 | 4.8 | 0.00 | 0.00 | 0.00 | 10 | 1016.7 |
| 20260503070702 | 14 | 193 | 0.0 | 3.2 | 0.00 | 0.00 | 0.00 | 10 | 1016.6 |
| 20260503060115 | 17 | 221 | 1.6 | 8.0 | 0.00 | 0.00 | 0.00 | 7 | 1016.6 |
| 20260503054612 | 18 | 176 | 3.2 | 6.4 | 0.00 | 0.00 | 0.00 | 6 | 1016.6 |
| 20260503054112 | 17 | 160 | 3.2 | 6.4 | 0.00 | 0.00 | 0.00 | 7 | 1016.5 |
| 20260503053611 | 18 | 167 | 3.2 | 8.0 | 0.00 | 0.00 | 0.00 | 6 | 1016.5 |
| 20260503053111 | 18 | 195 | 3.2 | 8.0 | 0.00 | 0.00 | 0.00 | 6 | 1016.5 |
| 20260503052610 | 18 | 216 | 3.2 | 8.0 | 0.00 | 0.00 | 0.00 | 6 | 1016.6 |
| 20260503051615 | 18 | 195 | 4.8 | 8.0 | 0.00 | 0.00 | 0.00 | 6 | 1016.6 |
| 20260503050609 | 18 | 193 | 3.2 | 8.0 | 0.00 | 0.00 | 0.00 | 6 | 1016.5 |
| 20260503050112 | 18 | 207 | 3.2 | 8.0 | 0.00 | 0.00 | 0.00 | 6 | 1016.6 |
| 20260503045606 | 18 | 224 | 4.8 | 8.0 | 0.00 | 0.00 | 0.00 | 6 | 1016.6 |
| 20260503045110 | 18 | 229 | 4.8 | 9.7 | 0.00 | 0.00 | 0.00 | 6 | 1016.5 |
| 20260503044606 | 18 | 195 | 4.8 | 9.7 | 0.00 | 0.00 | 0.00 | 6 | 1016.5 |
| 20260503043600 | 18 | 198 | 3.2 | 8.0 | 0.00 | 0.00 | 0.00 | 6 | 1016.4 |
| 20260503043057 | 18 | 194 | 3.2 | 8.0 | 0.00 | 0.00 | 0.00 | 6 | 1016.4 |
| 20260503042551 | 18 | 195 | 3.2 | 6.4 | 0.00 | 0.00 | 0.00 | 6 | 1016.2 |
| 20260503042042 | 18 | 201 | 3.2 | 8.0 | 0.00 | 0.00 | 0.00 | 6 | 1016.2 |
| 20260503041536 | 19 | 205 | 3.2 | 8.0 | 0.00 | 0.00 | 0.00 | 5 | 1016.2 |
| 20260503041030 | 19 | 173 | 3.2 | 8.0 | 0.00 | 0.00 | 0.00 | 5 | 1016.0 |
| 20260503040524 | 19 | 199 | 3.2 | 9.7 | 0.00 | 0.00 | 0.00 | 5 | 1016.0 |
| 20260503035513 | 20 | 264 | 3.2 | 9.7 | 0.00 | 0.00 | 0.00 | 5 | 1015.9 |
| 20260503035006 | 20 | 225 | 4.8 | 9.7 | 0.00 | 0.00 | 0.00 | 5 | 1015.9 |
| 20260503033956 | 20 | 210 | 4.8 | 9.7 | 0.00 | 0.00 | 0.00 | 4 | 1015.8 |
| 20260503033448 | 20 | 215 | 3.2 | 9.7 | 0.00 | 0.00 | 0.00 | 4 | 1015.8 |
| 20260503032943 | 20 | 179 | 3.2 | 11.3 | 0.00 | 0.00 | 0.00 | 4 | 1015.8 |
| 20260503032441 | 20 | 232 | 3.2 | 11.3 | 0.00 | 0.00 | 0.00 | 4 | 1015.8 |
| 20260503031930 | 21 | 274 | 4.8 | 11.3 | 0.00 | 0.00 | 0.00 | 4 | 1015.6 |
| 20260503031427 | 21 | 266 | 4.8 | 11.3 | 0.00 | 0.00 | 0.00 | 4 | 1015.6 |